• In Germany
  • List of Countries
  • For 7 days
  • Water Temperature
  • Satellite Maps
  • Weather Map
  • Weather Widgets
  • user-avatar
    Login

    Hourly Weather Ganja

    Today, 23 July, Monday

    Time Temperature Precipitation Wind Pressure Humidity
    00:00 +26°C° 0.1 mm 2 mps 721 mmHg 64%
    01:00 +26°C° 0 mm 1 mps 721 mmHg 65%
    02:00 +25°C° 0 mm 1 mps 721 mmHg 66%
    03:00 +25°C° 0 mm 3 mps 720 mmHg 67%
    04:00 +25°C° 0 mm 2 mps 720 mmHg 67%
    05:00 +25°C° 0 mm 2 mps 720 mmHg 68%
    06:00 +25°C° 0 mm 2 mps 720 mmHg 68%
    07:00 +26°C° 0 mm 2 mps 720 mmHg 64%
    08:00 +27°C° 0 mm 2 mps 720 mmHg 60%
    09:00 +28°C° 0 mm 3 mps 720 mmHg 57%
    10:00 +29°C° 0.1 mm 2 mps 719 mmHg 56%
    11:00 +30°C° 0.1 mm 2 mps 719 mmHg 54%
    12:00 +30°C° 0.1 mm 2 mps 719 mmHg 53%
    13:00 +31°C° 0.2 mm 2 mps 719 mmHg 50%
    14:00 +33°C° 0.2 mm 3 mps 718 mmHg 47%
    15:00 +34°C° 0.2 mm 3 mps 718 mmHg 44%
    16:00 +34°C° 0.5 mm 3 mps 718 mmHg 44%
    17:00 +33°C° 0.5 mm 3 mps 718 mmHg 45%
    18:00 +33°C° 0.5 mm 3 mps 718 mmHg 46%
    19:00 +31°C° 0.1 mm 3 mps 719 mmHg 48%
    20:00 +30°C° 0.1 mm 2 mps 719 mmHg 51%
    21:00 +29°C° 0.1 mm 2 mps 719 mmHg 53%
    22:00 +28°C° 0.2 mm 2 mps 720 mmHg 55%
    23:00 +27°C° 0.2 mm 2 mps 720 mmHg 56%

    Tomorrow, 24 July, Tuesday

    Time Temperature Precipitation Wind Pressure Humidity
    00:00 +27°C° 0.2 mm 2 mps 720 mmHg 57%
    01:00 +26°C° 0.1 mm 2 mps 720 mmHg 58%
    02:00 +26°C° 0.1 mm 2 mps 720 mmHg 59%
    03:00 +25°C° 0.1 mm 2 mps 720 mmHg 61%
    04:00 +25°C° 0 mm 2 mps 720 mmHg 60%
    05:00 +26°C° 0 mm 3 mps 720 mmHg 60%
    06:00 +26°C° 0 mm 3 mps 720 mmHg 59%
    07:00 +27°C° 0 mm 3 mps 720 mmHg 54%
    08:00 +29°C° 0 mm 3 mps 720 mmHg 49%
    09:00 +31°C° 0 mm 3 mps 720 mmHg 44%
    10:00 +33°C° 0 mm 3 mps 720 mmHg 42%
    11:00 +34°C° 0 mm 2 mps 719 mmHg 40%
    12:00 +35°C° 0 mm 2 mps 719 mmHg 37%
    13:00 +36°C° 0 mm 2 mps 719 mmHg 36%
    14:00 +36°C° 0 mm 2 mps 719 mmHg 35%
    15:00 +37°C° 0 mm 2 mps 718 mmHg 34%
    16:00 +37°C° 0 mm 2 mps 719 mmHg 36%
    17:00 +36°C° 0 mm 2 mps 719 mmHg 37%
    18:00 +36°C° 0 mm 2 mps 719 mmHg 39%
    19:00 +35°C° 0 mm 2 mps 720 mmHg 41%
    20:00 +32°C° 0 mm 2 mps 720 mmHg 43%
    21:00 +31°C° 0 mm 3 mps 721 mmHg 45%
    22:00 +30°C° 0 mm 2 mps 721 mmHg 46%
    23:00 +29°C° 0 mm 2 mps 721 mmHg 46%

    Day after tomorrow, 25 July, Wednesday

    Time Temperature Precipitation Wind Pressure Humidity
    00:00 +29°C° 0 mm 2 mps 721 mmHg 47%
    01:00 +28°C° 0 mm 2 mps 721 mmHg 47%
    02:00 +28°C° 0 mm 2 mps 721 mmHg 48%
    03:00 +28°C° 0 mm 1 mps 721 mmHg 48%
    04:00 +28°C° 0 mm 2 mps 721 mmHg 48%
    05:00 +28°C° 0 mm 2 mps 721 mmHg 48%
    06:00 +28°C° 0 mm 2 mps 721 mmHg 47%
    07:00 +30°C° 0 mm 2 mps 721 mmHg 45%
    08:00 +31°C° 0 mm 2 mps 721 mmHg 42%
    09:00 +34°C° 0 mm 2 mps 721 mmHg 39%
    10:00 +35°C° 0 mm 2 mps 720 mmHg 38%
    11:00 +36°C° 0 mm 2 mps 720 mmHg 36%
    12:00 +37°C° 0 mm 2 mps 720 mmHg 35%
    13:00 +38°C° 0 mm 2 mps 719 mmHg 35%
    14:00 +39°C° 0 mm 3 mps 719 mmHg 34%
    15:00 +39°C° 0 mm 3 mps 719 mmHg 33%
    16:00 +39°C° 0 mm 3 mps 719 mmHg 35%
    17:00 +39°C° 0 mm 3 mps 719 mmHg 36%
    18:00 +38°C° 0 mm 3 mps 719 mmHg 38%
    19:00 +37°C° 0 mm 3 mps 719 mmHg 40%
    20:00 +35°C° 0 mm 3 mps 720 mmHg 42%
    21:00 +34°C° 0 mm 4 mps 720 mmHg 44%
    22:00 +33°C° 0 mm 3 mps 720 mmHg 45%
    23:00 +31°C° 0 mm 3 mps 720 mmHg 47%

    26 July, Thursday

    Time Temperature Precipitation Wind Pressure Humidity
    00:00 +31°C° 0 mm 3 mps 720 mmHg 48%
    01:00 +30°C° 0 mm 2 mps 720 mmHg 50%
    02:00 +29°C° 0 mm 2 mps 720 mmHg 52%
    03:00 +29°C° 0 mm 1 mps 720 mmHg 54%
    04:00 +29°C° 0 mm 1 mps 720 mmHg 54%
    05:00 +29°C° 0 mm 1 mps 721 mmHg 54%
    06:00 +29°C° 0 mm 1 mps 721 mmHg 54%
    07:00 +31°C° 0 mm 1 mps 721 mmHg 50%
    08:00 +32°C° 0 mm 1 mps 721 mmHg 47%
    09:00 +34°C° 0 mm 2 mps 721 mmHg 43%
    10:00 +36°C° 0 mm 3 mps 721 mmHg 41%
    11:00 +37°C° 0 mm 3 mps 720 mmHg 39%
    12:00 +38°C° 0 mm 4 mps 720 mmHg 38%
    13:00 +38°C° 0 mm 4 mps 720 mmHg 37%
    14:00 +40°C° 0 mm 5 mps 719 mmHg 37%
    15:00 +40°C° 0 mm 5 mps 719 mmHg 36%
    16:00 +40°C° 0 mm 5 mps 719 mmHg 36%
    17:00 +40°C° 0 mm 5 mps 719 mmHg 36%
    18:00 +39°C° 0 mm 6 mps 719 mmHg 36%
    19:00 +36°C° 0 mm 6 mps 720 mmHg 38%
    20:00 +35°C° 0 mm 6 mps 720 mmHg 39%
    21:00 +33°C° 0 mm 5 mps 721 mmHg 41%
    22:00 +32°C° 0 mm 4 mps 721 mmHg 43%
    23:00 +30°C° 0 mm 4 mps 721 mmHg 45%

    27 July, Friday

    Time Temperature Precipitation Wind Pressure Humidity
    00:00 +29°C° 0 mm 3 mps 721 mmHg 47%
    01:00 +29°C° 0 mm 2 mps 721 mmHg 48%
    02:00 +28°C° 0 mm 2 mps 721 mmHg 49%
    03:00 +28°C° 0 mm 1 mps 721 mmHg 50%
    04:00 +28°C° 0 mm 1 mps 721 mmHg 49%
    05:00 +28°C° 0 mm 1 mps 721 mmHg 49%
    06:00 +29°C° 0 mm 1 mps 722 mmHg 48%
    07:00 +30°C° 0 mm 2 mps 722 mmHg 43%
    08:00 +32°C° 0 mm 2 mps 722 mmHg 38%
    09:00 +34°C° 0 mm 3 mps 722 mmHg 33%
    10:00 +36°C° 0 mm 4 mps 721 mmHg 31%
    11:00 +37°C° 0 mm 5 mps 721 mmHg 30%
    12:00 +39°C° 0 mm 6 mps 721 mmHg 28%
    13:00 +40°C° 0 mm 6 mps 720 mmHg 26%
    14:00 +40°C° 0 mm 7 mps 720 mmHg 25%
    15:00 +41°C° 0 mm 7 mps 720 mmHg 24%
    16:00 +40°C° 0 mm 7 mps 720 mmHg 25%
    17:00 +39°C° 0 mm 7 mps 720 mmHg 27%
    18:00 +38°C° 0 mm 7 mps 720 mmHg 28%
    19:00 +35°C° 0 mm 6 mps 720 mmHg 29%
    20:00 +34°C° 0 mm 6 mps 720 mmHg 30%
    21:00 +32°C° 0 mm 5 mps 721 mmHg 31%
    22:00 +30°C° 0 mm 4 mps 721 mmHg 32%
    23:00 +29°C° 0 mm 4 mps 721 mmHg 32%

    28 July, Saturday

    Time Temperature Precipitation Wind Pressure Humidity
    00:00 +28°C° 0 mm 3 mps 721 mmHg 33%
    01:00 +28°C° 0 mm 3 mps 721 mmHg 33%
    02:00 +27°C° 0 mm 2 mps 721 mmHg 33%
    03:00 +27°C° 0 mm 2 mps 721 mmHg 33%
    04:00 +27°C° 0 mm 1 mps 721 mmHg 34%
    05:00 +27°C° 0 mm 1 mps 721 mmHg 35%
    06:00 +27°C° 0 mm 1 mps 721 mmHg 35%
    07:00 +29°C° 0 mm 1 mps 721 mmHg 31%
    08:00 +31°C° 0 mm 1 mps 721 mmHg 28%
    09:00 +32°C° 0 mm 2 mps 720 mmHg 24%
    10:00 +35°C° 0 mm 2 mps 720 mmHg 22%
    11:00 +36°C° 0 mm 3 mps 720 mmHg 20%
    12:00 +38°C° 0 mm 4 mps 720 mmHg 19%
    13:00 +40°C° 0 mm 5 mps 719 mmHg 18%
    14:00 +40°C° 0 mm 5 mps 719 mmHg 18%
    15:00 +41°C° 0 mm 5 mps 719 mmHg 17%
    16:00 +40°C° 0 mm 5 mps 719 mmHg 19%
    17:00 +40°C° 0 mm 5 mps 719 mmHg 21%
    18:00 +39°C° 0 mm 5 mps 719 mmHg 22%
    19:00 +36°C° 0 mm 5 mps 719 mmHg 24%
    20:00 +34°C° 0 mm 5 mps 720 mmHg 25%
    21:00 +32°C° 0 mm 5 mps 720 mmHg 27%
    22:00 +30°C° 0 mm 4 mps 720 mmHg 28%
    23:00 +29°C° 0 mm 3 mps 720 mmHg 28%
    Show more